Location: Newark
(40.7066°N, 111.8219°W)
Time: 01:43:02
(UTC+00:00)

N. Korean satellite - Visible Passes

Search period start: 19 October 2019 00:00
Search period end: 29 October 2019 00:00
Orbit: 455 x 508 km, 97.2° (Epoch: 18 October)

Date Brightness Start Highest point End Pass type
(mag) Time Alt. Az. Time Alt. Az. Time Alt. Az.
19 Oct 10.4 01:43:03 10° WSW 01:44:17 12° W 01:45:33 10° WNW visible
19 Oct 7.7 13:06:58 10° NNE 13:10:30 50° E 13:14:04 10° S visible
20 Oct 9.3 01:16:00 10° SSW 01:18:48 24° W 01:21:40 10° NW visible
20 Oct 9.3 12:42:08 10° NE 12:45:07 24° E 12:48:08 10° SSE visible
21 Oct 10.3 12:18:14 10° ENE 12:19:40 12° E 12:21:07 10° ESE visible
23 Oct 10.0 01:34:24 10° SW 01:36:23 15° W 01:38:23 10° WNW visible
23 Oct 8.2 12:59:13 10° NNE 13:02:40 40° E 13:06:09 10° S visible
24 Oct 8.8 01:07:52 10° SSW 01:10:55 30° W 01:14:02 10° NNW visible
24 Oct 9.7 12:34:32 10° NE 12:37:16 20° E 12:40:00 10° SE visible
26 Oct 7.0 13:16:29 10° NNE 13:20:09 71° E 13:23:51 10° S visible
27 Oct 9.8 01:25:59 10° SW 01:28:27 18° W 01:30:56 10° NW visible
27 Oct 8.7 12:51:27 10° NNE 12:54:48 32° E 12:58:09 10° SSE visible
28 Oct 8.2 00:59:46 10° SSW 01:03:00 38° W 01:06:18 10° NNW visible
28 Oct 10.0 12:26:59 10° NE 12:29:21 16° E 12:31:43 10° SE visible
